Location: Allen Fire Department Station 4
(33.1073°N, 96.6988°W)
Time: 16:26:52
(UTC+00:00)

Aurora 2 Rocket - Pass Details

Date: 09 July 2022
Orbit: 389 x 1718 km, 25.0° (Epoch: 06 August)

Event Time Altitude Azimuth Distance (km) Brightness Sun altitude
Rises 04:21:59 0° 266° (W) 4,935 7.5 -26.5°
Reaches altitude 10° 04:25:41 10° 260° (W) 3,858 6.8 -26.9°
Maximum altitude 04:35:09 46° 193° (SSW) 1,792 4.5 -27.9°
Enters shadow 04:35:12 46° 191° (SSW) 1,790 4.5 -27.9°
